Location: �quirre
(50.4736°N, 2.2351°E)
Time: 15:17:02
(UTC+00:00)

Cosmos 2219 Rocket - Pass Details

Date: 07 August 2020
Orbit: 826 x 848 km, 71.0° (Epoch: 18 September)

Event Time Altitude Azimuth Distance (km) Brightness Sun altitude
Rises 00:01:50 0° 330° (NNW) 3,415 6.3 -23.2°
Reaches altitude 10° 00:04:17 10° 330° (NNW) 2,478 5.4 -23.2°
Maximum altitude 00:10:00 89° 241° (WSW) 855 2.1 -23.1°
Enters shadow 00:11:36 50° 153° (SSE) 1,076 2.3 -23.1°
